Theta_e
312 312 314 315 316 318 318 319 319 320 320 319 320 320 320 321 320 317 316 321 319 312 315 318 320 313 314 310 305 309 309 310 307 303 304 304 302 305 301 302 306 303 300 302 302 297 298 319 319 310 314 317 321 322
311 311 311 313 315 315 318 318 319 319 320 320 320 320 320 320 320 319 315 322 323 316 316 321 324 324 321 320 312 308 308 308 309 305 306 305 304 305 302 299 306 303 307 305 307 308 315 316 316 317 320 319 319 320
310 310 311 312 313 315 317 318 318 319 320 320 320 320 319 319 320 318 313 317 318 314 315 314 315 323 324 323 318 308 309 312 311 312 307 305 301 304 299 300 303 309 312 308 308 313 314 316 316 318 318 317 317 317
310 310 310 309 312 314 316 318 319 319 320 319 319 319 319 319 319 319 312 317 317 315 308 312 324 319 324 320 317 315 313 312 312 311 306 304 303 308 304 306 304 308 312 309 308 311 315 318 317 318 319 320 320 320
309 309 309 308 311 314 315 314 315 316 316 316 316 317 317 317 316 315 314 316 320 315 307 310 318 320 319 317 318 317 314 310 309 307 305 304 307 307 307 306 303 310 308 305 304 313 313 314 318 321 319 320 322 323
309 309 309 309 310 312 314 314 313 314 314 314 314 314 314 315 315 313 314 318 319 315 310 305 315 316 318 316 316 315 314 311 310 308 306 308 311 309 303 302 309 312 313 312 310 316 319 320 322 323 321 322 323 323
310 309 309 309 309 310 312 314 314 314 313 312 312 312 312 313 312 311 311 316 314 313 312 307 308 316 318 314 312 312 312 311 310 307 306 307 308 310 305 302 309 313 314 317 315 316 315 320 319 320 322 323 326 327
309 309 309 309 309 309 310 312 314 313 313 313 312 312 312 313 312 310 314 314 316 315 313 304 306 309 314 310 309 312 310 310 310 308 308 306 308 308 303 308 311 315 317 317 317 315 316 317 319 318 321 322 323 323
309 309 308 308 309 309 309 311 314 314 313 312 312 312 312 308 307 310 319 320 319 315 307 306 302 302 313 310 310 311 310 305 311 307 306 308 304 303 308 311 313 315 316 315 317 316 316 316 317 318 319 323 321 321
309 309 309 309 308 309 309 310 311 312 312 312 307 303 299 306 318 318 316 312 314 315 314 306 309 304 309 308 308 308 309 306 303 308 310 305 303 308 311 314 316 317 320 317 313 310 311 312 315 316 318 322 323 323
309 309 309 309 309 308 309 310 311 312 312 302 302 300 309 317 308 308 305 305 308 307 310 310 306 304 310 305 306 309 306 308 303 306 307 304 303 309 315 314 317 320 320 320 318 318 316 315 317 320 323 324 324 326
309 309 309 309 308 308 309 309 311 308 304 304 305 310 310 306 304 301 300 304 303 302 308 308 307 310 309 313 308 312 308 307 301 309 305 301 308 311 313 316 318 319 323 323 320 321 322 319 321 323 323 323 325 324
309 309 309 309 309 308 308 310 310 309 309 309 304 300 301 301 293 294 293 298 301 305 308 308 305 309 309 312 308 306 305 305 312 305 302 304 308 316 319 321 323 322 324 324 322 322 321 322 324 325 322 325 323 322
308 308 308 309 309 308 309 310 310 308 304 301 297 289 295 295 294 297 297 301 306 306 306 306 304 308 309 307 308 302 305 305 301 301 302 306 309 313 318 321 319 322 322 322 322 322 322 321 322 326 326 325 322 322
308 308 308 308 309 308 309 309 310 307 302 299 299 289 292 296 298 303 302 301 306 310 309 308 307 307 306 307 309 305 304 302 301 300 302 306 308 309 310 314 320 319 320 320 320 321 322 321 323 323 324 323 323 323
308 307 305 308 308 308 308 308 306 304 302 301 300 293 297 295 296 299 304 302 308 310 308 308 304 300 302 306 305 304 303 299 301 304 307 306 306 307 309 314 317 327 320 322 321 322 323 321 323 324 323 323 324 324
307 300 308 308 308 308 308 304 302 299 298 297 296 297 296 298 298 299 304 305 309 308 302 303 300 299 303 300 302 303 300 302 305 306 306 305 304 306 310 314 315 317 322 321 320 320 321 324 324 323 323 323 323 322
300 302 308 307 306 304 302 302 300 297 293 296 294 296 297 301 300 301 304 308 306 304 304 301 304 299 297 296 298 303 305 306 307 307 307 307 306 307 311 312 315 317 319 325 320 322 322 323 322 323 324 323 322 321
302 304 308 307 304 300 296 297 298 293 294 296 297 298 295 296 298 303 304 305 305 305 302 298 296 297 295 301 304 305 306 305 304 304 306 308 307 308 310 312 315 316 319 320 326 323 324 324 324 325 325 325 324 324
307 307 308 307 306 298 295 296 299 295 292 292 294 294 293 293 295 298 299 302 301 299 295 294 295 297 299 304 307 306 307 305 302 301 303 305 308 309 309 311 313 315 317 320 326 319 322 323 326 326 327 323 323 320
303 304 306 305 300 299 296 295 294 296 293 292 295 294 293 295 294 294 295 299 297 296 294 297 298 299 301 302 306 306 307 306 302 302 304 304 308 309 310 311 314 316 316 316 323 323 320 324 321 323 321 320 319 318
301 305 302 302 296 296 294 297 295 296 293 293 294 296 294 292 294 294 296 295 294 297 299 299 299 299 299 299 304 306 307 307 307 306 304 304 305 308 309 311 312 312 314 315 319 322 321 322 322 321 320 317 316 316
304 302 298 298 293 290 291 300 294 297 292 291 293 292 292 292 294 298 292 293 295 298 300 302 303 303 303 303 301 305 307 307 308 307 307 308 309 309 310 312 314 312 312 315 317 318 323 316 317 321 320 319 312 308
304 296 292 292 292 288 293 291 295 295 295 294 293 292 294 294 296 293 291 293 299 299 298 298 300 301 300 301 302 303 305 307 308 308 311 309 308 308 311 313 314 315 315 317 317 317 321 317 313 316 313 312 311 310
290 290 291 287 293 291 290 290 291 290 289 290 289 288 290 294 290 290 290 293 294 296 298 299 299 299 300 302 301 301 305 306 307 307 310 311 310 309 310 313 314 315 316 316 315 315 318 317 315 314 313 310 310 310
286 291 288 290 292 291 291 290 290 290 289 289 290 292 292 291 291 289 290 297 299 300 301 301 301 300 302 303 303 301 305 308 308 306 309 311 310 309 308 309 310 311 317 318 317 315 315 315 312 311 310 309 304 309
286 290 293 296 295 294 292 293 294 293 291 290 291 291 292 288 289 292 299 301 300 303 304 304 303 301 301 302 304 306 307 307 310 309 312 312 312 312 311 311 310 313 317 318 319 317 315 312 313 312 310 309 309 309
291 292 289 291 290 292 290 290 291 291 293 294 293 291 292 292 292 298 302 305 304 305 304 304 305 306 305 306 307 308 305 308 308 307 309 310 311 313 314 315 316 307 317 319 319 318 316 313 311 311 310 309 308 309
290 292 291 290 291 291 291 291 293 296 298 297 294 293 295 298 300 299 301 305 305 302 299 301 304 306 307 308 309 309 306 308 307 304 302 304 307 308 312 313 314 315 316 317 308 308 314 314 310 308 308 307 307 307
290 295 292 292 292 291 294 296 296 300 299 298 298 297 298 299 302 304 303 303 303 303 305 304 305 301 300 301 303 304 306 306 306 305 301 304 305 308 311 311 313 314 316 316 316 316 306 302 302 305 305 306 305 305
292 293 292 291 291 294 296 298 298 298 297 297 299 297 297 298 300 302 302 303 303 303 302 302 303 306 306 305 305 305 305 309 310 312 311 311 311 311 312 313 313 313 314 313 313 311 309 306 306 306 306 306 306 304
291 290 290 289 290 295 297 295 294 293 294 294 294 295 295 295 294 302 308 307 305 305 304 304 303 303 304 306 308 310 303 311 311 311 310 311 312 312 312 312 312 313 314 313 312 312 312 311 310 309 309 309 309 308
291 292 292 292 291 292 296 295 295 293 294 294 297 299 299 298 296 301 308 309 307 307 307 306 305 305 305 305 304 305 304 307 306 300 299 298 298 302 309 310 311 312 311 312 311 310 310 310 309 309 309 310 309 309
Wind_Speed
12 12 12 11 13 10 9 11 11 10 9 11 12 13 14 13 13 6 6 3 3 2 8 4 2 2 5 3 2 6 6 7 5 7 3 3 3 3 4 4 2 4 4 0 3 4 1 4 5 6 6 4 7 6
11 12 12 11 12 10 10 10 10 10 9 9 9 11 11 12 11 9 3 5 2 4 8 4 14 17 11 14 4 2 5 4 4 4 2 2 4 4 1 2 6 3 5 6 6 6 6 4 8 3 5 6 4 6
11 11 11 11 12 10 11 11 11 9 9 8 7 8 10 10 8 5 3 4 3 3 6 4 4 10 9 8 7 4 3 2 4 4 4 2 2 3 1 3 3 7 1 4 5 4 4 5 3 5 5 6 5 5
11 10 10 12 12 12 9 9 9 8 7 4 4 4 7 9 8 4 2 2 1 3 2 8 6 7 13 5 8 6 5 2 3 3 3 2 1 1 2 3 3 6 4 3 1 3 3 2 4 7 6 6 6 4
11 10 10 12 11 8 5 4 4 3 3 2 2 4 7 9 10 5 4 4 2 3 3 7 11 8 7 5 5 4 3 2 2 2 3 2 3 2 2 2 2 2 5 4 7 8 7 5 4 6 6 5 6 8
10 10 10 9 9 8 7 5 3 1 1 2 5 6 8 9 10 2 2 1 2 3 1 4 6 7 7 3 9 7 4 3 3 4 4 3 4 4 1 3 6 3 3 7 6 7 8 10 9 5 6 7 5 9
11 9 9 8 8 8 8 7 6 5 4 4 6 8 9 9 2 3 3 2 6 3 2 5 6 7 7 4 1 2 2 2 4 2 2 4 3 4 3 5 6 7 6 2 4 1 2 5 6 7 7 4 7 7
10 9 8 7 8 8 8 9 9 7 6 6 8 9 11 11 6 4 0 3 2 0 2 2 6 6 4 3 2 2 3 2 1 5 1 2 3 2 4 7 8 9 7 6 7 7 7 4 7 6 6 6 7 7
11 9 8 7 7 7 7 7 8 9 5 6 9 11 3 1 2 3 9 11 3 3 3 2 3 5 6 4 0 2 3 2 2 5 5 5 3 6 8 9 9 8 5 4 3 7 7 6 7 6 7 8 9 7
12 10 8 7 7 6 6 6 7 7 5 3 2 1 3 3 6 7 3 2 1 3 3 3 2 4 4 4 4 2 2 5 3 7 4 5 6 6 8 9 8 8 8 6 4 2 3 2 5 7 7 8 9 8
12 11 10 8 6 5 5 6 4 7 4 1 3 3 3 3 2 1 2 3 3 5 4 5 5 3 2 2 3 3 3 3 4 7 8 4 4 8 13 12 12 10 9 9 9 9 9 8 6 7 6 9 8 9
12 10 9 8 7 5 5 5 6 3 2 4 4 1 1 0 1 3 4 3 4 3 2 4 8 8 3 3 2 4 4 2 5 3 5 4 7 7 8 11 14 10 13 13 10 11 9 9 8 9 9 8 10 9
13 11 11 10 7 6 6 6 8 6 7 3 1 2 2 2 4 5 5 3 3 4 4 4 2 4 2 2 2 2 5 5 2 2 4 5 4 4 6 6 9 9 10 10 8 8 9 8 9 9 8 9 11 9
13 12 12 12 9 7 6 7 5 5 2 3 4 4 5 4 5 5 4 3 4 3 3 3 1 2 2 4 5 5 7 3 4 3 10 4 17 18 22 15 8 6 10 12 12 10 10 9 8 9 11 14 12 10
13 12 11 11 10 7 6 5 8 2 2 4 4 5 7 5 3 3 5 2 2 3 3 1 1 1 2 4 4 4 4 7 4 5 5 10 12 13 18 19 20 12 8 9 9 9 9 9 9 9 12 12 12 11
12 6 6 11 12 8 7 4 3 2 3 3 4 3 4 4 4 4 4 4 3 4 2 2 3 1 3 4 4 6 4 3 4 1 3 4 8 10 14 17 20 17 10 11 9 8 8 9 11 13 10 11 12 12
12 3 13 13 13 10 10 3 3 4 4 4 3 4 3 5 5 4 2 4 3 3 3 2 4 4 2 3 4 4 3 3 2 3 3 5 6 9 13 15 17 19 16 7 8 8 8 10 12 15 14 9 11 10
2 4 9 16 11 6 1 1 2 4 5 2 3 4 2 2 3 2 2 2 3 3 2 3 3 2 3 3 2 1 2 3 5 3 3 6 6 5 7 12 16 17 16 18 8 8 9 13 16 13 15 13 9 8
5 4 13 20 7 4 3 3 3 3 4 3 3 6 3 4 3 3 2 2 3 3 5 2 2 3 4 3 2 2 2 2 4 2 3 5 7 7 8 9 10 14 16 20 14 7 10 15 14 12 11 10 9 7
10 15 19 18 9 1 4 2 0 3 3 5 3 4 3 4 3 2 1 2 3 4 2 4 5 4 4 3 4 4 4 3 0 6 10 5 5 6 7 8 7 11 8 14 15 12 7 6 9 10 10 9 11 8
6 3 6 8 1 3 2 2 2 3 4 4 3 4 5 2 3 3 5 3 3 5 4 5 5 5 5 4 4 4 5 4 5 5 9 7 6 7 7 6 7 6 4 8 10 9 12 11 7 7 9 9 7 7
3 7 2 2 2 3 2 3 3 3 3 4 2 4 2 4 7 5 3 3 4 6 6 5 4 5 5 5 6 6 7 7 7 5 8 5 5 6 4 6 5 5 5 6 11 6 7 8 6 5 6 6 6 5
9 3 2 2 3 4 4 3 4 4 3 3 1 0 3 3 5 2 3 5 5 5 6 7 10 10 10 10 5 6 8 9 7 6 8 8 6 6 5 5 3 3 7 7 9 11 7 5 6 5 4 5 5 5
4 3 3 3 4 5 4 4 4 4 5 4 2 2 4 4 1 2 4 5 7 4 4 6 5 6 3 5 6 8 10 8 8 6 6 6 7 7 4 3 5 3 1 3 6 10 5 3 6 6 6 7 6 6
3 4 4 5 5 4 5 4 4 3 5 6 3 3 4 2 1 3 4 5 3 4 4 4 4 5 6 7 5 6 8 7 7 9 8 8 7 4 4 4 4 4 2 4 4 10 5 7 6 7 7 7 8 8
4 6 5 7 4 5 4 3 5 7 4 5 6 4 2 4 4 5 4 2 2 1 2 3 3 2 2 1 3 2 4 5 7 8 9 7 8 8 7 6 4 4 1 1 4 10 14 8 7 9 7 8 10 7
4 6 5 5 4 3 2 4 3 2 3 3 2 1 2 2 5 4 2 2 2 3 4 4 2 1 2 5 4 4 4 1 3 6 7 6 8 7 7 8 6 4 1 5 4 9 13 12 5 7 7 5 6 7
5 3 5 5 2 1 0 2 1 3 3 3 2 4 3 4 3 3 4 3 4 3 4 3 4 3 3 4 4 6 4 4 5 4 3 2 3 5 6 5 6 10 5 6 10 10 9 11 2 5 5 6 4 4
4 4 1 2 2 2 3 4 4 4 4 4 4 3 3 3 3 2 2 3 3 3 3 5 6 3 4 4 5 2 0 4 3 5 8 2 1 3 6 7 6 6 6 7 11 14 15 12 4 5 6 6 5 6
6 4 4 5 4 2 4 3 2 2 2 5 4 1 2 3 5 4 3 2 3 4 4 4 4 3 3 2 3 3 2 0 3 4 2 3 3 4 5 5 9 9 9 9 8 9 17 6 1 2 3 3 2 3
3 2 0 3 5 5 6 5 4 4 3 3 6 6 6 5 4 4 3 3 3 2 3 4 2 4 4 4 3 3 4 4 5 5 1 1 2 5 7 8 5 5 10 9 10 10 8 5 5 4 5 6 7 6
1 3 2 3 4 4 3 2 3 3 3 2 4 3 3 2 3 2 4 3 3 4 4 4 4 2 1 2 2 2 5 3 1 3 5 2 3 1 3 4 7 6 6 5 5 4 6 8 6 6 7 7 5 3
1 2 2 1 2 2 1 2 3 3 3 1 4 3 3 3 1 2 2 3 1 2 4 0 1 2 3 3 2 2 4 3 5 2 2 3 2 1 2 2 5 6 6 5 5 5 7 5 4 4 4 5 6 5
Wind_Direction
299 305 299 289 291 287 286 288 284 281 285 305 313 324 334 341 348 6 277 308 72 286 280 259 334 40 350 65 108 283 14 352 17 37 50 306 10 328 40 301 135 137 110 5 66 68 222 304 5 101 195 159 148 136
289 297 304 303 297 294 288 286 282 278 275 283 296 310 323 331 340 349 302 319 333 177 245 238 266 251 203 218 156 324 191 234 215 70 12 352 338 359 64 336 344 36 174 169 150 204 229 296 132 146 151 119 123 119
278 283 284 294 301 297 297 279 276 273 266 267 282 298 311 318 327 357 279 293 352 339 302 351 311 295 186 207 173 135 299 223 358 170 165 215 297 109 33 274 15 328 65 91 61 296 166 146 119 121 114 110 100 75
281 285 293 295 301 282 308 289 272 258 251 248 281 309 321 313 312 318 268 286 105 273 270 280 354 324 298 271 197 170 197 26 105 73 107 124 209 136 241 218 146 214 45 141 314 324 21 0 106 135 122 115 95 62
280 285 285 292 291 282 292 324 17 66 95 80 347 333 323 320 314 279 225 243 215 142 253 284 313 262 272 257 206 154 106 91 86 29 66 240 248 51 300 46 248 192 185 137 226 223 169 222 199 141 129 128 128 94
278 280 286 281 287 283 273 274 280 293 14 353 329 325 323 327 332 314 14 71 83 75 191 305 284 289 294 290 187 177 172 136 113 142 212 255 259 109 242 240 256 213 167 181 243 196 194 180 178 141 136 145 171 129
278 275 281 275 272 270 258 253 250 257 269 298 308 311 310 324 324 197 203 247 330 156 137 309 291 264 235 144 132 129 105 160 133 185 218 201 278 88 186 215 258 272 276 279 312 157 114 146 186 186 173 169 135 127
271 273 278 276 268 262 270 247 234 234 256 292 304 314 309 304 272 303 230 284 283 159 90 244 269 324 172 142 178 173 140 80 297 195 337 175 340 151 251 247 227 240 263 271 239 231 192 162 153 191 158 140 123 121
257 257 269 272 277 262 262 270 239 223 224 280 300 306 312 294 257 240 305 302 215 163 198 204 219 252 359 348 211 35 120 143 237 183 208 114 237 224 225 215 217 216 185 203 333 205 172 149 197 193 176 139 139 145
249 243 241 263 274 270 253 262 251 219 199 273 321 348 288 226 309 319 17 93 220 228 210 219 268 272 42 347 333 7 181 200 182 232 108 166 238 237 241 224 231 231 212 190 128 183 183 188 199 223 190 172 155 154
240 246 221 235 254 270 245 249 229 165 133 89 203 228 240 309 38 11 196 205 197 200 191 198 189 221 308 85 269 212 248 228 176 241 150 212 258 231 234 243 239 218 217 214 195 190 192 185 197 173 171 152 139 141
228 232 216 221 228 236 227 220 200 193 186 225 250 305 355 276 212 215 207 212 225 221 187 182 211 212 235 179 204 280 243 242 235 173 142 209 254 241 241 241 244 216 212 210 196 189 193 190 159 169 158 146 147 147
221 217 212 210 218 218 217 223 211 246 6 319 211 176 153 187 220 212 193 214 191 190 207 196 248 185 203 150 211 201 254 245 337 144 204 220 237 288 290 283 249 229 213 204 189 186 179 170 158 162 152 151 145 140
219 210 206 195 201 213 220 208 203 107 114 238 165 221 212 193 233 200 196 172 220 161 147 102 256 218 233 159 193 201 240 348 249 184 220 350 359 345 344 319 299 230 198 191 189 182 182 180 167 175 160 157 146 144
203 199 207 190 186 200 194 186 169 124 263 226 196 221 216 233 255 224 219 293 267 136 114 116 251 334 279 245 194 208 230 214 175 238 14 345 347 342 330 335 317 264 212 204 190 186 189 178 162 161 167 162 148 141
184 178 198 179 178 178 162 154 135 131 246 237 232 261 248 152 264 257 238 227 202 142 109 122 133 118 266 269 224 223 224 72 103 175 234 285 316 344 333 332 322 293 232 201 192 184 181 167 160 163 159 156 150 147
153 202 180 174 166 161 164 154 172 206 246 232 243 261 224 268 231 225 218 208 171 111 199 167 178 223 122 257 267 52 58 153 189 231 262 269 298 329 340 342 335 347 328 215 181 177 179 166 155 151 158 165 153 152
156 203 183 160 134 107 96 225 254 211 232 239 267 273 281 279 299 314 270 144 102 160 140 206 122 195 189 261 279 81 233 239 233 202 242 268 272 295 342 350 337 343 332 333 259 168 151 159 163 163 160 158 146 148
176 184 159 149 148 132 153 205 209 247 204 188 244 280 243 263 279 283 264 132 117 133 107 110 178 202 231 227 203 216 269 261 275 289 260 276 298 314 325 347 339 332 331 337 303 196 169 169 167 161 156 155 158 165
102 152 155 157 167 156 184 213 29 283 237 223 221 254 224 225 244 283 319 183 122 122 137 208 206 219 190 233 211 216 222 202 35 317 310 321 296 305 334 319 330 313 313 325 305 246 130 130 163 155 157 156 154 160
65 81 148 160 124 3 320 166 210 238 242 245 226 185 242 270 241 229 250 183 149 183 214 216 214 233 245 248 231 216 225 185 204 211 280 292 297 315 317 310 314 339 334 309 285 237 160 157 160 157 150 154 150 151
107 130 94 164 136 162 245 241 252 280 242 249 316 181 233 220 232 245 206 174 213 213 193 195 212 220 240 233 225 209 225 227 219 227 258 250 264 268 284 276 305 335 305 28 308 254 157 133 136 141 149 155 138 148
112 124 95 127 164 178 258 184 215 233 239 269 329 189 259 242 225 139 219 213 229 211 203 213 224 223 230 243 212 217 221 223 234 223 242 249 245 234 225 256 276 8 343 336 341 321 294 144 159 145 166 147 131 131
115 142 153 194 193 212 204 211 207 205 208 209 210 217 230 227 271 84 237 230 245 240 225 232 200 226 241 242 233 237 241 212 226 236 223 230 252 264 219 251 272 215 284 292 347 305 266 231 180 156 153 129 140 132
117 181 185 211 209 218 222 195 198 216 224 201 220 252 258 104 139 243 235 260 230 250 272 266 228 213 223 237 233 226 232 191 212 233 235 202 220 234 230 239 278 270 340 325 3 336 294 230 190 175 144 142 148 158
202 202 205 188 225 203 220 203 200 202 198 194 230 232 135 146 191 254 241 305 80 60 356 325 305 348 347 263 191 235 242 213 222 237 251 190 206 208 215 210 217 286 130 202 35 317 306 268 187 160 155 159 164 160
219 220 200 220 217 210 231 230 184 144 195 224 225 212 139 191 233 249 220 225 152 235 224 233 209 46 309 294 306 286 267 299 149 237 252 206 209 207 195 195 200 229 33 297 270 278 294 297 233 177 164 168 173 179
253 235 204 210 209 221 244 338 352 218 221 219 119 183 204 220 245 240 209 211 201 226 269 241 204 209 251 273 274 289 289 346 324 274 9 101 186 196 208 217 193 172 193 240 269 281 286 303 43 102 141 180 196 173
250 258 103 214 216 206 198 216 211 228 199 144 158 201 258 239 227 257 266 216 179 193 265 296 310 242 253 284 281 286 132 91 66 2 332 236 336 271 224 223 202 182 197 202 247 268 280 281 236 111 105 114 127 119
240 202 188 191 154 208 243 193 238 272 243 185 183 268 295 269 246 230 247 212 181 223 236 237 256 243 249 358 352 342 289 344 105 134 120 322 299 291 340 201 214 210 198 200 200 235 275 213 151 112 124 139 158 137
257 5 237 199 195 210 223 230 234 243 252 235 203 212 234 244 272 243 208 231 217 243 283 307 16 26 79 54 55 46 0 323 330 318 24 342 48 3 356 2 8 190 204 205 215 226 213 197 189 189 193 198 195 181
214 219 220 245 269 285 318 253 233 227 254 252 262 244 286 278 266 39 338 18 54 48 41 51 94 88 53 264 318 83 218 280 34 325 324 280 119 333 347 357 19 28 38 24 67 76 92 93 88 84 76 68 47 29
307 338 319 285 307 250 297 14 280 269 240 117 35 354 345 348 50 274 300 50 113 108 114 155 286 51 23 357 340 344 327 301 307 29 25 21 79 8 359 59 31 350 5 38 45 30 23 39 76 73 74 78 65 34